Location: Fayetteville
(35.0530°N, 78.8790°W)
Time: 01:29:16
(UTC-04:00)

ISS - Visible Passes

Search period start: 29 August 2016 00:00
Search period end: 08 September 2016 00:00
Orbit: 402 x 406 km, 51.6° (Epoch: 29 August)

Date Brightness Start Highest point End Pass type
(mag) Time Alt. Az. Time Alt. Az. Time Alt. Az.
02 Sep -0.5 05:41:53 10° SSE 05:43:43 14° SE 05:45:34 10° E visible
04 Sep -2.2 05:33:21 21° S 05:35:02 38° SE 05:38:07 10° ENE visible
05 Sep -0.7 04:43:25 17° ESE 04:43:25 17° ESE 04:45:02 10° E visible
05 Sep -2.3 06:16:05 11° WSW 06:18:59 34° NW 06:22:01 10° NNE visible
06 Sep -3.4 05:26:02 60° W 05:26:26 71° NW 05:29:43 10° NE visible
07 Sep -0.7 04:35:53 21° ENE 04:35:53 21° ENE 04:37:10 10° ENE visible
07 Sep -1.2 06:08:32 10° WNW 06:10:39 17° NNW 06:12:52 10° NNE visible
